Total_Precipitation_Accumulation
1.73 1.76 1.83 1.80 1.79 1.85 1.81 1.77 1.81 1.95 1.97 1.91 1.86 1.86 1.87 1.85 1.91 1.94 1.73 1.86 2.03 2.09 2.11 2.26 2.31 2.44 2.50 2.51 2.62 2.77 3.04 3.27 2.93 2.36 2.25 2.24 2.37 2.35 2.24 2.01 1.79 1.70 1.53
1.78 1.91 2.02 2.06 2.11 2.07 1.87 1.76 1.81 1.88 1.92 1.94 1.92 1.87 1.77 1.79 2.00 2.06 1.92 2.01 2.11 2.10 2.13 2.27 2.17 2.35 2.52 2.48 2.59 2.61 2.74 3.08 2.94 2.65 2.60 2.54 2.52 2.43 2.42 2.24 1.92 1.73 1.66
1.99 2.19 2.40 2.50 2.37 2.18 2.05 1.94 1.94 1.93 1.97 2.04 2.07 2.07 2.05 2.08 2.10 2.17 2.25 2.22 2.15 2.08 2.14 2.14 2.10 2.29 2.30 2.40 2.52 2.51 2.52 2.69 2.87 2.78 2.73 2.80 2.75 2.64 2.59 2.40 2.21 2.14 1.81
1.70 2.01 2.26 2.42 2.28 2.18 2.15 2.00 1.91 1.92 2.02 2.13 2.15 2.27 2.44 2.48 2.47 2.43 2.33 2.26 2.22 2.18 2.15 2.10 2.05 2.07 2.11 2.22 2.33 2.44 2.53 2.67 2.81 2.83 2.87 2.98 2.94 2.99 2.99 2.77 2.62 2.52 2.19
1.55 1.68 1.93 2.21 2.07 1.82 1.76 1.71 1.65 1.73 1.87 2.18 2.34 2.42 2.69 2.82 2.63 2.65 2.57 2.46 2.46 2.28 2.15 2.06 1.91 1.94 2.00 2.05 2.00 2.14 2.30 2.45 2.50 2.59 2.69 2.91 2.97 3.07 3.05 2.90 2.77 2.78 2.60
1.46 1.59 1.77 1.89 1.74 1.56 1.44 1.47 1.50 1.59 1.77 1.95 2.09 2.21 2.26 2.10 2.26 2.29 2.27 2.32 2.35 2.24 2.16 2.09 1.94 1.85 1.83 1.79 1.69 1.72 1.84 1.98 2.18 2.42 2.51 2.72 2.92 3.08 3.28 3.32 3.15 2.97 2.81
1.46 1.50 1.63 1.73 1.71 1.60 1.43 1.44 1.51 1.61 1.74 1.82 1.86 1.91 1.87 1.93 1.97 1.75 1.70 1.69 1.87 1.99 2.05 2.04 1.80 1.66 1.75 1.67 1.68 1.65 1.66 1.80 1.92 2.18 2.36 2.47 2.72 2.93 3.19 3.30 3.31 3.20 3.02
1.52 1.57 1.71 1.87 1.88 1.81 1.74 1.71 1.80 1.86 1.82 1.81 1.85 1.89 1.95 1.93 1.83 1.61 1.59 1.55 1.68 1.80 1.88 1.92 1.89 1.82 1.82 1.86 1.77 1.64 1.55 1.64 1.75 1.72 1.79 1.97 2.26 2.65 2.85 2.89 3.07 3.11 2.98
1.70 1.75 1.82 1.97 2.03 2.05 2.13 2.17 2.22 2.20 2.06 2.03 2.10 2.13 2.08 1.98 1.85 1.65 1.65 1.60 1.70 1.75 1.76 1.77 1.78 1.73 1.82 1.71 1.62 1.59 1.58 1.61 1.61 1.58 1.53 1.58 1.74 1.99 2.36 2.52 2.63 2.59 2.47
1.88 2.03 2.05 2.18 2.30 2.27 2.36 2.49 2.62 2.65 2.54 2.56 2.43 2.26 2.14 2.01 1.97 1.68 1.60 1.53 1.61 1.69 1.77 1.73 1.66 1.54 1.54 1.49 1.46 1.57 1.55 1.56 1.62 1.55 1.44 1.37 1.33 1.50 1.85 2.05 2.17 2.22 2.11
2.09 2.17 2.19 2.33 2.48 2.62 2.82 3.00 3.02 2.97 2.97 2.87 2.59 2.46 2.42 2.35 2.14 1.68 1.53 1.43 1.50 1.67 1.71 1.69 1.61 1.59 1.39 1.34 1.32 1.35 1.37 1.38 1.48 1.52 1.48 1.44 1.45 1.47 1.56 1.76 2.00 2.13 2.10
2.17 2.27 2.42 2.52 2.54 2.65 3.01 3.14 3.14 3.11 2.97 2.80 2.65 2.44 2.31 2.21 2.00 1.71 1.52 1.52 1.62 1.69 1.69 1.64 1.64 1.56 1.34 1.27 1.19 1.17 1.21 1.16 1.18 1.31 1.31 1.27 1.29 1.32 1.40 1.59 1.82 1.98 2.06
2.14 2.30 2.47 2.61 2.81 3.00 3.16 3.13 3.06 3.03 2.91 2.75 2.61 2.40 2.32 2.37 2.27 1.94 1.72 1.69 1.70 1.61 1.59 1.63 1.57 1.44 1.24 1.08 1.07 1.07 1.00 0.95 1.05 1.16 1.17 1.11 1.10 1.15 1.26 1.44 1.63 1.81 1.84
2.02 2.15 2.27 2.35 2.43 2.58 2.84 2.81 2.67 2.64 2.69 2.68 2.64 2.51 2.44 2.42 2.36 2.09 1.82 1.79 1.76 1.67 1.60 1.58 1.44 1.35 1.18 1.07 1.07 0.99 0.91 0.97 1.07 1.10 1.13 1.14 1.12 1.16 1.20 1.29 1.43 1.58 1.67
1.82 1.90 1.93 1.98 2.06 2.15 2.26 2.38 2.37 2.37 2.37 2.39 2.38 2.34 2.23 2.14 2.21 2.10 1.89 1.87 1.92 1.93 1.86 1.72 1.57 1.44 1.28 1.16 1.14 1.16 1.18 1.23 1.21 1.19 1.25 1.30 1.28 1.21 1.18 1.24 1.41 1.48 1.45
1.85 1.81 1.79 1.82 1.86 1.88 1.97 2.02 2.06 1.96 1.87 1.78 1.73 1.71 1.65 1.70 1.83 1.74 1.65 1.71 1.80 1.87 1.74 1.58 1.53 1.45 1.36 1.34 1.38 1.39 1.38 1.38 1.35 1.36 1.39 1.43 1.42 1.32 1.25 1.28 1.41 1.49 1.45
2.04 1.94 1.84 1.76 1.76 1.79 1.82 1.91 1.94 1.85 1.70 1.54 1.42 1.35 1.32 1.39 1.48 1.47 1.48 1.57 1.69 1.77 1.64 1.60 1.57 1.55 1.47 1.44 1.48 1.48 1.41 1.39 1.44 1.47 1.47 1.48 1.55 1.58 1.55 1.49 1.49 1.60 1.62
2.14 2.03 1.87 1.76 1.71 1.71 1.74 1.78 1.88 1.97 1.88 1.68 1.45 1.27 1.16 1.12 1.16 1.26 1.38 1.48 1.53 1.55 1.51 1.57 1.56 1.58 1.59 1.58 1.56 1.55 1.52 1.54 1.53 1.54 1.60 1.64 1.74 1.79 1.81 1.74 1.68 1.68 1.72
1.95 1.85 1.72 1.67 1.68 1.69 1.74 1.75 1.72 1.76 1.74 1.68 1.52 1.32 1.19 1.11 1.10 1.18 1.21 1.21 1.35 1.42 1.45 1.46 1.46 1.47 1.52 1.55 1.53 1.53 1.52 1.55 1.56 1.62 1.65 1.68 1.76 1.78 1.74 1.70 1.72 1.78 1.81
1.91 1.87 1.71 1.64 1.73 1.77 1.76 1.77 1.73 1.80 1.78 1.72 1.54 1.33 1.22 1.11 1.03 1.08 1.10 1.20 1.37 1.42 1.42 1.40 1.42 1.42 1.46 1.50 1.54 1.55 1.56 1.59 1.64 1.72 1.74 1.75 1.80 1.78 1.72 1.73 1.81 1.86 1.82
1.90 1.85 1.74 1.63 1.67 1.79 1.82 1.80 1.74 1.76 1.73 1.73 1.59 1.40 1.31 1.13 1.12 1.17 1.24 1.35 1.46 1.44 1.44 1.43 1.41 1.35 1.35 1.40 1.45 1.49 1.53 1.60 1.64 1.70 1.76 1.80 1.83 1.81 1.77 1.82 1.89 1.96 1.98
1.81 1.75 1.61 1.46 1.49 1.59 1.65 1.68 1.71 1.67 1.68 1.70 1.64 1.49 1.38 1.17 1.18 1.26 1.31 1.38 1.43 1.44 1.42 1.41 1.35 1.25 1.24 1.29 1.36 1.47 1.53 1.55 1.61 1.71 1.77 1.80 1.85 1.84 1.89 1.94 1.97 2.02 2.10
1.65 1.59 1.46 1.30 1.31 1.44 1.50 1.57 1.62 1.59 1.57 1.56 1.50 1.41 1.33 1.25 1.23 1.25 1.29 1.32 1.36 1.39 1.35 1.32 1.27 1.23 1.27 1.34 1.40 1.47 1.54 1.57 1.56 1.59 1.66 1.72 1.79 1.84 1.91 1.93 1.93 2.02 2.07
1.56 1.52 1.47 1.31 1.29 1.44 1.53 1.62 1.59 1.54 1.54 1.54 1.44 1.42 1.36 1.37 1.35 1.29 1.28 1.31 1.34 1.33 1.31 1.29 1.24 1.21 1.26 1.34 1.40 1.40 1.43 1.46 1.48 1.53 1.58 1.68 1.73 1.80 1.87 1.88 1.86 1.88 1.95
1.52 1.53 1.57 1.46 1.41 1.45 1.51 1.57 1.52 1.46 1.45 1.44 1.44 1.48 1.49 1.43 1.42 1.43 1.42 1.42 1.40 1.34 1.28 1.24 1.27 1.27 1.26 1.27 1.29 1.31 1.35 1.27 1.26 1.32 1.37 1.49 1.55 1.65 1.74 1.74 1.76 1.82 1.87
1.48 1.51 1.62 1.58 1.51 1.52 1.59 1.63 1.62 1.55 1.50 1.45 1.44 1.48 1.53 1.55 1.52 1.51 1.51 1.51 1.50 1.46 1.38 1.32 1.27 1.23 1.24 1.21 1.18 1.20 1.16 1.05 1.06 1.19 1.25 1.31 1.42 1.52 1.57 1.57 1.55 1.62 1.69